TimeEST,TemperatureF,Dew PointF,Humidity,Sea Level PressureIn,VisibilityMPH,Wind Direction,Wind SpeedMPH,Gust SpeedMPH,PrecipitationIn,Events,Conditions,WindDirDegrees,DateUTC
12:54 AM,35.1,28.0,76,29.95,10.0,East,10.4,-,N/A,,Clear,80,2013-03-06 05:54:00
1:54 AM,36.0,30.0,79,29.91,10.0,East,11.5,-,N/A,,Clear,80,2013-03-06 06:54:00
2:54 AM,37.0,30.9,79,29.87,10.0,ENE,11.5,-,N/A,,Clear,70,2013-03-06 07:54:00
3:54 AM,37.0,30.9,79,29.85,10.0,ENE,16.1,-,N/A,,Scattered Clouds,70,2013-03-06 08:54:00
4:54 AM,39.0,30.9,73,29.83,10.0,ENE,23.0,33.4,N/A,,Overcast,70,2013-03-06 09:54:00
5:16 AM,39.2,30.2,70,29.82,10.0,East,23.0,33.4,N/A,,Overcast,80,2013-03-06 10:16:00
5:54 AM,39.0,30.9,73,29.82,10.0,East,23.0,32.2,N/A,,Overcast,80,2013-03-06 10:54:00
6:54 AM,39.9,30.9,70,29.81,10.0,ENE,23.0,34.5,N/A,,Overcast,70,2013-03-06 11:54:00
7:54 AM,39.9,32.0,73,29.82,10.0,ENE,26.5,35.7,N/A,,Overcast,70,2013-03-06 12:54:00
8:54 AM,39.9,32.0,73,29.81,10.0,ENE,27.6,46.0,0.00,Rain,Light Rain,70,2013-03-06 13:54:00
9:54 AM,39.0,34.0,82,29.80,8.0,ENE,26.5,40.3,0.00,Rain,Light Rain,70,2013-03-06 14:54:00
10:54 AM,39.9,35.1,83,29.79,10.0,ENE,29.9,42.6,0.00,,Overcast,60,2013-03-06 15:54:00
11:54 AM,39.9,35.1,83,29.79,6.0,ENE,25.3,34.5,0.00,Rain,Light Rain,60,2013-03-06 16:54:00
12:54 PM,41.0,34.0,76,29.77,10.0,ENE,26.5,41.4,0.01,Rain,Light Rain,70,2013-03-06 17:54:00
1:54 PM,39.9,34.0,79,29.77,10.0,NE,33.4,41.4,0.00,Rain,Light Rain,50,2013-03-06 18:54:00
2:54 PM,39.0,35.1,86,29.79,10.0,NE,27.6,38.0,0.04,Rain,Light Rain,40,2013-03-06 19:54:00
3:54 PM,37.9,33.1,83,29.81,10.0,NE,28.8,42.6,0.01,Rain,Light Rain,40,2013-03-06 20:54:00
4:54 PM,37.9,34.0,86,29.83,10.0,NNE,20.7,32.2,0.01,,Overcast,20,2013-03-06 21:54:00
5:29 PM,37.4,33.8,87,29.84,10.0,NNE,21.9,29.9,N/A,,Overcast,20,2013-03-06 22:29:00
5:54 PM,37.9,32.0,79,29.85,10.0,NNE,21.9,31.1,N/A,,Overcast,20,2013-03-06 22:54:00
6:54 PM,39.9,28.9,65,29.88,10.0,NNE,24.2,28.8,N/A,,Overcast,20,2013-03-06 23:54:00
7:54 PM,39.9,30.0,68,29.90,10.0,NNE,28.8,34.5,0.00,Rain,Light Rain,30,2013-03-07 00:54:00
8:05 PM,39.2,30.2,70,29.90,10.0,NNE,19.6,31.1,0.00,Rain,Light Rain,20,2013-03-07 01:05:00
8:29 PM,39.2,30.2,70,29.90,10.0,NNE,18.4,41.4,0.00,Rain,Light Rain,20,2013-03-07 01:29:00
8:54 PM,39.0,30.0,70,29.91,10.0,NNE,24.2,34.5,0.00,,Overcast,20,2013-03-07 01:54:00
9:54 PM,36.0,30.9,82,29.94,9.0,NNE,18.4,34.5,0.00,Snow,Light Snow,20,2013-03-07 02:54:00
10:54 PM,35.1,32.0,89,29.95,9.0,North,17.3,-,0.01,Snow,Light Snow,360,2013-03-07 03:54:00
11:13 PM,35.6,32.0,87,29.94,9.0,North,18.4,25.3,0.00,,Overcast,360,2013-03-07 04:13:00
11:23 PM,35.6,30.2,81,29.95,10.0,North,16.1,26.5,0.00,Snow,Light Snow,360,2013-03-07 04:23:00
11:37 PM,35.6,30.2,81,29.95,9.0,North,15.0,-,0.01,Rain,Light Freezing Rain,360,2013-03-07 04:37:00
11:54 PM,35.1,30.0,82,29.95,10.0,North,16.1,23.0,0.01,,Overcast,360,2013-03-07 04:54:00